When you browse on this site, cookies collect data to enhance your experience and personalize the content and advertising you see.
Visit our Privacy Policy to learn more. By continuing to use the site, you agree to this use of cookies and data.
  • In Latvia
  • List of Countries
  • For 7 days
  • Water Temperature
  • Weather Map
  • Weather Widgets
  • user-avatar
    Login

    Hourly Weather Satif

    Today, 17 November, Sunday

    Time Temperature Precipitation Wind Pressure Humidity
    00:00 +2°C° 0 mm 7 mps 665 mmHg 92%
    01:00 0°C° 0.4 mm 7 mps 666 mmHg 92%
    02:00 +1°C° 0.4 mm 6 mps 666 mmHg 92%
    03:00 +1°C° 0.4 mm 5 mps 666 mmHg 92%
    04:00 +1°C° 0 mm 4 mps 667 mmHg 92%
    05:00 +1°C° 0 mm 3 mps 667 mmHg 92%
    06:00 +2°C° 0 mm 2 mps 667 mmHg 92%
    07:00 +2°C° 0 mm 3 mps 668 mmHg 85%
    08:00 +3°C° 0 mm 4 mps 669 mmHg 78%
    09:00 +4°C° 0 mm 4 mps 669 mmHg 71%
    10:00 +5°C° 0 mm 5 mps 670 mmHg 65%
    11:00 +6°C° 0 mm 5 mps 670 mmHg 60%
    12:00 +7°C° 0 mm 6 mps 670 mmHg 55%
    13:00 +7°C° 0 mm 6 mps 670 mmHg 55%
    14:00 +7°C° 0 mm 6 mps 669 mmHg 55%
    15:00 +7°C° 0 mm 6 mps 669 mmHg 55%
    16:00 +6°C° 0 mm 5 mps 669 mmHg 60%
    17:00 +5°C° 0 mm 4 mps 669 mmHg 65%
    18:00 +4°C° 0 mm 3 mps 669 mmHg 70%
    19:00 +4°C° 0 mm 3 mps 669 mmHg 71%
    20:00 +4°C° 0 mm 3 mps 669 mmHg 73%
    21:00 +3°C° 0 mm 3 mps 669 mmHg 74%
    22:00 +3°C° 0 mm 3 mps 669 mmHg 76%
    23:00 +3°C° 0 mm 3 mps 669 mmHg 77%

    Tomorrow, 18 November, Monday

    Time Temperature Precipitation Wind Pressure Humidity
    00:00 +3°C° 0 mm 3 mps 668 mmHg 79%
    01:00 +3°C° 0 mm 3 mps 668 mmHg 80%
    02:00 +3°C° 0 mm 3 mps 668 mmHg 81%
    03:00 +2°C° 0 mm 3 mps 667 mmHg 83%
    04:00 +3°C° 0 mm 4 mps 667 mmHg 82%
    05:00 +3°C° 0 mm 4 mps 667 mmHg 81%
    06:00 +3°C° 0 mm 4 mps 667 mmHg 80%
    07:00 +3°C° 0 mm 5 mps 667 mmHg 77%
    08:00 +4°C° 0 mm 7 mps 667 mmHg 74%
    09:00 +5°C° 0 mm 8 mps 668 mmHg 70%
    10:00 +6°C° 0 mm 8 mps 668 mmHg 69%
    11:00 +6°C° 0 mm 8 mps 667 mmHg 68%
    12:00 +6°C° 0 mm 8 mps 667 mmHg 67%
    13:00 +6°C° 0.1 mm 8 mps 667 mmHg 70%
    14:00 +6°C° 0.1 mm 7 mps 667 mmHg 72%
    15:00 +5°C° 0.1 mm 6 mps 666 mmHg 74%
    16:00 +6°C° 0.4 mm 5 mps 667 mmHg 78%
    17:00 +5°C° 0.4 mm 5 mps 667 mmHg 81%
    18:00 +5°C° 0.4 mm 4 mps 667 mmHg 84%
    19:00 +4°C° 0.1 mm 4 mps 667 mmHg 85%
    20:00 +4°C° 0.1 mm 3 mps 668 mmHg 85%
    21:00 +4°C° 0.1 mm 3 mps 668 mmHg 86%
    22:00 +4°C° 0 mm 3 mps 668 mmHg 87%
    23:00 +4°C° 0 mm 2 mps 668 mmHg 88%

    Day after tomorrow, 19 November, Tuesday

    Time Temperature Precipitation Wind Pressure Humidity
    00:00 +4°C° 0 mm 2 mps 668 mmHg 90%
    01:00 +4°C° 0 mm 2 mps 668 mmHg 89%
    02:00 +4°C° 0 mm 2 mps 668 mmHg 89%
    03:00 +4°C° 0 mm 2 mps 668 mmHg 88%
    04:00 +4°C° 0 mm 2 mps 668 mmHg 89%
    05:00 +3°C° 0 mm 2 mps 669 mmHg 90%
    06:00 +3°C° 0 mm 2 mps 669 mmHg 90%
    07:00 +4°C° 0 mm 2 mps 670 mmHg 85%
    08:00 +5°C° 0 mm 2 mps 670 mmHg 80%
    09:00 +6°C° 0 mm 2 mps 671 mmHg 75%
    10:00 +7°C° 0 mm 2 mps 671 mmHg 72%
    11:00 +7°C° 0 mm 2 mps 671 mmHg 69%
    12:00 +8°C° 0 mm 3 mps 671 mmHg 66%
    13:00 +8°C° 0 mm 2 mps 671 mmHg 64%
    14:00 +9°C° 0 mm 1 mps 671 mmHg 63%
    15:00 +9°C° 0 mm 1 mps 671 mmHg 61%
    16:00 +9°C° 0 mm 1 mps 671 mmHg 67%
    17:00 +8°C° 0 mm 1 mps 671 mmHg 73%
    18:00 +6°C° 0 mm 0 mps 671 mmHg 79%
    19:00 +6°C° 0 mm 0 mps 671 mmHg 80%
    20:00 +5°C° 0 mm 0 mps 671 mmHg 82%
    21:00 +5°C° 0 mm 0 mps 672 mmHg 84%
    22:00 +5°C° 0 mm 0 mps 671 mmHg 84%
    23:00 +4°C° 0 mm 0 mps 671 mmHg 84%

    20 November, Wednesday

    Time Temperature Precipitation Wind Pressure Humidity
    00:00 +5°C° 0 mm 1 mps 671 mmHg 84%
    01:00 +5°C° 0 mm 1 mps 671 mmHg 83%
    02:00 +5°C° 0 mm 1 mps 671 mmHg 82%
    03:00 +5°C° 0 mm 1 mps 670 mmHg 81%
    04:00 +4°C° 0 mm 2 mps 670 mmHg 81%
    05:00 +4°C° 0 mm 2 mps 670 mmHg 81%
    06:00 +3°C° 0 mm 2 mps 670 mmHg 81%
    07:00 +4°C° 0 mm 4 mps 670 mmHg 74%
    08:00 +5°C° 0 mm 5 mps 671 mmHg 67%
    09:00 +6°C° 0 mm 7 mps 671 mmHg 61%
    10:00 +6°C° 0 mm 8 mps 671 mmHg 59%
    11:00 +7°C° 0 mm 8 mps 671 mmHg 57%
    12:00 +7°C° 0 mm 9 mps 671 mmHg 56%
    13:00 +7°C° 0 mm 8 mps 670 mmHg 58%
    14:00 +8°C° 0 mm 7 mps 670 mmHg 59%
    15:00 +8°C° 0 mm 7 mps 670 mmHg 61%
    16:00 +7°C° 0 mm 5 mps 669 mmHg 65%
    17:00 +6°C° 0 mm 4 mps 669 mmHg 70%
    18:00 +5°C° 0 mm 3 mps 669 mmHg 74%
    19:00 +5°C° 0 mm 3 mps 669 mmHg 74%
    20:00 +5°C° 0 mm 3 mps 670 mmHg 74%
    21:00 +5°C° 0 mm 3 mps 670 mmHg 74%
    22:00 +5°C° 0 mm 3 mps 670 mmHg 74%
    23:00 +5°C° 0 mm 3 mps 670 mmHg 73%

    21 November, Thursday

    Time Temperature Precipitation Wind Pressure Humidity
    00:00 +5°C° 0 mm 3 mps 669 mmHg 73%
    01:00 +4°C° 0 mm 3 mps 669 mmHg 74%
    02:00 +4°C° 0 mm 3 mps 669 mmHg 74%
    03:00 +4°C° 0 mm 3 mps 669 mmHg 75%
    04:00 +3°C° 0 mm 3 mps 669 mmHg 74%
    05:00 +4°C° 0 mm 2 mps 668 mmHg 74%
    06:00 +4°C° 0 mm 2 mps 668 mmHg 74%
    07:00 +5°C° 0 mm 3 mps 669 mmHg 68%
    08:00 +7°C° 0 mm 3 mps 670 mmHg 62%
    09:00 +8°C° 0 mm 3 mps 670 mmHg 56%
    10:00 +10°C° 0 mm 4 mps 670 mmHg 53%
    11:00 +11°C° 0 mm 4 mps 671 mmHg 49%
    12:00 +12°C° 0 mm 4 mps 671 mmHg 46%
    13:00 +12°C° 0 mm 4 mps 670 mmHg 47%
    14:00 +12°C° 0 mm 4 mps 670 mmHg 49%
    15:00 +12°C° 0 mm 3 mps 670 mmHg 50%
    16:00 +11°C° 0 mm 3 mps 670 mmHg 53%
    17:00 +10°C° 0 mm 3 mps 670 mmHg 57%
    18:00 +9°C° 0 mm 2 mps 669 mmHg 60%
    19:00 +9°C° 0 mm 2 mps 670 mmHg 60%
    20:00 +8°C° 0 mm 2 mps 670 mmHg 60%
    21:00 +8°C° 0 mm 2 mps 670 mmHg 60%
    22:00 +8°C° 0 mm 3 mps 669 mmHg 59%
    23:00 +8°C° 0 mm 3 mps 669 mmHg 57%

    22 November, Friday

    Time Temperature Precipitation Wind Pressure Humidity
    00:00 +8°C° 0 mm 3 mps 669 mmHg 56%
    01:00 +8°C° 0 mm 3 mps 669 mmHg 55%
    02:00 +8°C° 0 mm 3 mps 668 mmHg 54%
    03:00 +8°C° 0 mm 3 mps 668 mmHg 54%
    04:00 +8°C° 0 mm 3 mps 668 mmHg 54%
    05:00 +7°C° 0 mm 4 mps 668 mmHg 54%
    06:00 +6°C° 0 mm 4 mps 668 mmHg 53%
    07:00 +7°C° 0 mm 4 mps 668 mmHg 50%
    08:00 +8°C° 0 mm 5 mps 668 mmHg 47%
    09:00 +9°C° 0 mm 6 mps 669 mmHg 45%
    10:00 +10°C° 0 mm 7 mps 669 mmHg 43%
    11:00 +11°C° 0 mm 8 mps 668 mmHg 42%
    12:00 +12°C° 0 mm 9 mps 668 mmHg 40%
    13:00 +11°C° 0 mm 9 mps 668 mmHg 42%
    14:00 +10°C° 0 mm 9 mps 668 mmHg 44%
    15:00 +10°C° 0 mm 9 mps 667 mmHg 46%
    16:00 +9°C° 0 mm 8 mps 667 mmHg 53%
    17:00 +8°C° 0 mm 7 mps 667 mmHg 60%
    18:00 +7°C° 0 mm 6 mps 667 mmHg 67%
    19:00 +7°C° 0.1 mm 6 mps 667 mmHg 66%
    20:00 +7°C° 0.1 mm 6 mps 667 mmHg 64%
    21:00 +7°C° 0.1 mm 6 mps 668 mmHg 63%
    22:00 +7°C° 0 mm 6 mps 667 mmHg 60%
    23:00 +7°C° 0 mm 6 mps 667 mmHg 57%
    Show more